Weather History for Dayton, OH

Change the Weather History Date:

Saturday, August 24, 2013

  Actual Average Record
Temperature  
Mean Temperature 70 °F 72 °F  
Max Temperature 84 °F 82 °F 99 °F (1903)
Min Temperature 56 °F 62 °F 44 °F (1902)
Degree Days  
Heating Degree Days 0 0  
Month to date heating degree days 9 0  
Since 1 June heating degree days 23 22  
Since 1 July heating degree days 12 0  
Cooling Degree Days 5 7  
Month to date cooling degree days 164 196  
Year to date cooling degree days 792 735  
Since 1 June cooling degree days 661 665  
Growing Degree Days 20 (Base 50)    
Moisture  
Dew Point 58 °F    
Average Humidity 67    
Maximum Humidity 93    
Minimum Humidity 40    
Precipitation  
Precipitation 0.00 in 0.09 in 1.53 in (1982)
Month to date precipitation 1.38 2.28  
Year to date precipitation 22.38 27.60  
Snow  
Snow 0.00 in 0.00 in 0.00 in ()
Month to date snowfall 0.0 0.0  
Since 1 June snowfall 0.0 0.0  
Since 1 July snowfall 0.0 0.0  
Snow Depth 0.00 in    
Sea Level Pressure  
Sea Level Pressure 30.25 in    
Wind  
Wind Speed 5 mph (East)    
Max Wind Speed 13 mph    
Max Gust Speed 16 mph    
Visibility 10 miles    
Events      
T = Trace of Precipitation, MM = Missing Value Source: NWS Daily Summary

Daily Weather History Graph

Daily Weather History Graph

Search for Another Location

Airport:

Trip Planner

Search our weather history database for the weather conditions in past years. The results will help you decide how hot, cold, wet, or windy it might be!

Date:

Astronomy

Aug. 24, 2013 Rise Set
Actual Time 6:57 AM EDT 8:20 PM EDT
Civil Twilight 6:29 AM EDT 8:48 PM EDT
Nautical Twilight 5:55 AM EDT 9:22 PM EDT
Astronomical Twilight 5:19 AM EDT 9:57 PM EDT
Moon 10:14 PM EDT (8/24) 10:55 AM EDT (8/24)
Length of Visible Light 14h 19m
Length of Day
13h 22m
Waning Gibbous, 84% of the Moon is Illuminated
Aug 24
Waning Gibbous
Aug 28
Last Quarter
Sep 5
New
Sep 12
First Quarter
Sep 19
Full

Hourly Weather History & Observations

Time (EDT) Temp. Heat Index Dew Point Humidity Pressure Visibility Wind Dir Wind Speed Gust Speed Precip Events Conditions
12:56 AM 64.9 °F - 55.0 °F 70% 30.19 in 10.0 mi NE 4.6 mph - N/A   Clear
1:56 AM 62.1 °F - 54.0 °F 75% 30.19 in 10.0 mi ENE 5.8 mph - N/A   Clear
2:56 AM 63.0 °F - 55.0 °F 75% 30.19 in 10.0 mi Calm Calm - N/A   Clear
3:56 AM 60.1 °F - 54.0 °F 80% 30.19 in 10.0 mi Calm Calm - N/A   Clear
4:56 AM 57.9 °F - 54.0 °F 87% 30.21 in 10.0 mi North 3.5 mph - N/A   Clear
5:56 AM 57.0 °F - 54.0 °F 89% 30.22 in 10.0 mi Calm Calm - N/A   Clear
6:56 AM 55.9 °F - 53.1 °F 90% 30.24 in 10.0 mi Calm Calm - N/A   Clear
7:56 AM 60.1 °F - 55.0 °F 83% 30.26 in 10.0 mi NNE 3.5 mph - N/A   Clear
8:56 AM 66.0 °F - 55.9 °F 70% 30.28 in 10.0 mi NE 4.6 mph - N/A   Clear
9:56 AM 70.0 °F - 57.9 °F 65% 30.29 in 10.0 mi East 6.9 mph - N/A   Partly Cloudy
10:56 AM 73.9 °F - 59.0 °F 59% 30.29 in 10.0 mi SE 4.6 mph - N/A   Scattered Clouds
11:56 AM 78.1 °F - 61.0 °F 56% 30.29 in 10.0 mi Variable 3.5 mph - N/A   Mostly Cloudy
12:56 PM 79.0 °F - 59.0 °F 50% 30.29 in 10.0 mi ENE 8.1 mph - N/A   Scattered Clouds
1:56 PM 81.0 °F 81.3 °F 59.0 °F 47% 30.27 in 10.0 mi Variable 5.8 mph - N/A   Scattered Clouds
2:56 PM 82.0 °F 82.1 °F 59.0 °F 45% 30.26 in 10.0 mi Variable 4.6 mph - N/A   Mostly Cloudy
3:56 PM 84.0 °F 83.5 °F 57.9 °F 41% 30.25 in 10.0 mi Calm Calm - N/A   Scattered Clouds
4:56 PM 84.0 °F 84.0 °F 60.1 °F 44% 30.24 in 10.0 mi Variable 4.6 mph - N/A   Scattered Clouds
5:56 PM 82.9 °F 82.8 °F 59.0 °F 44% 30.24 in 10.0 mi East 5.8 mph - N/A   Scattered Clouds
6:56 PM 81.0 °F 81.7 °F 61.0 °F 50% 30.24 in 10.0 mi ESE 10.4 mph - N/A   Scattered Clouds
7:56 PM 78.1 °F - 61.0 °F 56% 30.25 in 10.0 mi East 8.1 mph - N/A   Scattered Clouds
8:56 PM 75.0 °F - 62.1 °F 64% 30.26 in 10.0 mi ESE 5.8 mph - N/A   Partly Cloudy
9:56 PM 73.0 °F - 62.1 °F 68% 30.27 in 10.0 mi ESE 8.1 mph - N/A   Clear
10:56 PM 71.1 °F - 61.0 °F 70% 30.27 in 10.0 mi ESE 6.9 mph - N/A   Clear
11:56 PM 69.1 °F - 60.1 °F 73% 30.27 in 10.0 mi ESE 5.8 mph - N/A   Clear